Location: Savignano sul Rubicone
(44.0950°N, 12.4090°E)
Time: 21:39:27
(UTC+01:00)

N. Korean satellite - Pass Details

Date: 31 October 2019
Orbit: 456 x 506 km, 97.2° (Epoch: 20 November)

Event Time Altitude Azimuth Distance (km) Brightness Sun altitude
Rises 17:59:09 0° 197° (SSW) 2,479 10.5 -10.7°
Reaches altitude 10° 18:01:30 10° 213° (SSW) 1,617 9.8 -11.1°
Maximum altitude 18:04:16 22° 266° (W) 1,073 9.4 -11.6°
Drops below altitude 10° 18:07:05 10° 319° (NW) 1,649 9.7 -12.1°
Sets 18:09:30 0° 335° (NNW) 2,544 10.5 -12.6°
